Weather History for KMYP - November, 2011

Change the Weather History Date:

Monday, November 28, 2011

  Actual Average (KGUC) Record (KGUC)
Temperature  
Mean Temperature 28 °F -  
Max Temperature 35 °F 32 °F 46 °F (1999)
Min Temperature 21 °F 7 °F -7 °F (2003)
Degree Days  
Heating Degree Days 37    
Moisture  
Dew Point 5 °F    
Average Humidity 37    
Maximum Humidity 50    
Minimum Humidity 27    
Precipitation  
Precipitation 0.00 in - - ()
Sea Level Pressure  
Sea Level Pressure 30.58 in    
Wind  
Wind Speed 22 mph (WSW)    
Max Wind Speed 34 mph    
Max Gust Speed 38 mph    
Visibility 10 miles    
Events      
Averages and records for this station are not official NWS values.
T = Trace of Precipitation, MM = Missing Value Source: NWS Daily Summary

Daily Weather History Graph

Daily Weather History Graph

Search for Another Location

Airport or City:

Trip Planner

Search our weather history database for the weather conditions in past years. The results will help you decide how hot, cold, wet, or windy it might be!

Date:

Astronomy

Nov. 28, 2011 Rise Set
Actual Time 7:00 AM MST 4:45 PM MST
Civil Twilight 6:31 AM MST 5:14 PM MST
Nautical Twilight 5:58 AM MST 5:47 PM MST
Astronomical Twilight 5:26 AM MST 6:19 PM MST
Moon 10:12 AM MST (11/28) 8:34 PM MST (11/28)
Length of Visible Light 10h 43m
Length of Day
9h 44m
Waxing Crescent, 16% of the Moon is Illuminated
Nov 28
Waxing Crescent
Dec 2
First Quarter
Dec 10
Full
Dec 17
Last Quarter
Dec 24
New

Hourly Weather History & Observations

Time (MST) Temp. Windchill Dew Point Humidity Pressure Visibility Wind Dir Wind Speed Gust Speed Precip Events Conditions
12:04 AM 24.8 °F 11.5 °F 5.0 °F 43% 30.64 in 10.0 mi SW 17.3 mph - N/A   Clear
12:24 AM 26.6 °F 12.7 °F 3.2 °F 37% 30.64 in 10.0 mi WSW 20.7 mph - N/A   Clear
12:44 AM 23.0 °F 8.3 °F 5.0 °F 46% 30.62 in 10.0 mi SW 19.6 mph - N/A   Clear
1:04 AM 23.0 °F 5.7 °F 5.0 °F 46% 30.61 in 10.0 mi SW 28.8 mph - N/A   Clear
1:24 AM 23.0 °F 5.1 °F 5.0 °F 46% 30.59 in 10.0 mi WSW 31.1 mph 38.0 mph N/A   Clear
1:44 AM 24.8 °F 9.0 °F 3.2 °F 40% 30.61 in 10.0 mi WSW 25.3 mph 29.9 mph N/A   Clear
2:04 AM 30.2 °F 16.2 °F -0.4 °F 27% 30.62 in 10.0 mi West 25.3 mph - N/A   Clear
2:24 AM 28.4 °F 14.7 °F 1.4 °F 31% 30.61 in 10.0 mi West 21.9 mph - N/A   Clear
2:44 AM 28.4 °F 13.5 °F 1.4 °F 31% 30.61 in 10.0 mi West 26.5 mph - N/A   Clear
3:04 AM 26.6 °F 9.8 °F 1.4 °F 34% 30.59 in 10.0 mi West 32.2 mph - N/A   Clear
3:24 AM 24.8 °F 7.9 °F 3.2 °F 40% 30.58 in 10.0 mi WSW 29.9 mph - N/A   Clear
3:44 AM 24.8 °F 7.3 °F 3.2 °F 40% 30.58 in 10.0 mi WSW 32.2 mph 35.7 mph N/A   Clear
4:04 AM 24.8 °F 6.8 °F 1.4 °F 36% 30.58 in 10.0 mi West 34.5 mph - N/A   Clear
4:24 AM 24.8 °F 6.8 °F 1.4 °F 36% 30.58 in 10.0 mi West 34.5 mph - N/A   Clear
4:44 AM 26.6 °F 9.3 °F 1.4 °F 34% 30.57 in 10.0 mi West 34.5 mph - N/A   Clear
5:04 AM 24.8 °F 7.1 °F 1.4 °F 36% 30.58 in 10.0 mi West 33.4 mph 38.0 mph N/A   Clear
5:44 AM 26.6 °F 9.8 °F -0.4 °F 31% 30.58 in 10.0 mi WSW 32.2 mph - N/A   Clear
6:04 AM 24.8 °F 8.1 °F 1.4 °F 36% 30.58 in 10.0 mi WSW 28.8 mph - N/A   Clear
6:24 AM 23.0 °F 6.0 °F 3.2 °F 43% 30.58 in 10.0 mi WSW 27.6 mph - N/A   Clear
6:44 AM 23.0 °F 6.9 °F 3.2 °F 43% 30.59 in 10.0 mi WSW 24.2 mph - N/A   Clear
7:04 AM 23.0 °F 7.2 °F 3.2 °F 43% 30.59 in 10.0 mi WSW 23.0 mph - N/A   Clear
7:24 AM 21.2 °F 5.6 °F 5.0 °F 50% 30.59 in 10.0 mi WSW 20.7 mph - N/A   Clear
7:44 AM 23.0 °F 8.3 °F 5.0 °F 46% 30.59 in 10.0 mi WSW 19.6 mph - N/A   Clear
8:04 AM 23.0 °F 8.0 °F 3.2 °F 43% 30.58 in 10.0 mi WSW 20.7 mph 25.3 mph N/A   Clear
8:24 AM 23.0 °F 6.9 °F 3.2 °F 43% 30.58 in 10.0 mi West 24.2 mph - N/A   Clear
8:44 AM 23.0 °F 6.3 °F 3.2 °F 43% 30.58 in 10.0 mi West 26.5 mph 31.1 mph N/A   Clear
9:04 AM 23.0 °F 6.0 °F 3.2 °F 43% 30.57 in 10.0 mi WSW 27.6 mph - N/A   Clear
9:24 AM 23.0 °F 6.0 °F 3.2 °F 43% 30.57 in 10.0 mi WSW 27.6 mph 32.2 mph N/A   Clear
9:44 AM 26.6 °F 11.7 °F 3.2 °F 37% 30.58 in 10.0 mi WSW 24.2 mph - N/A   Clear
10:04 AM 26.6 °F 13.1 °F 5.0 °F 40% 30.60 in 10.0 mi WSW 19.6 mph 25.3 mph N/A   Clear
10:24 AM 28.4 °F 15.8 °F 3.2 °F 34% 30.59 in 10.0 mi WSW 18.4 mph - N/A   Clear
10:44 AM 28.4 °F 14.7 °F 5.0 °F 37% 30.59 in 10.0 mi WSW 21.9 mph 26.5 mph N/A   Clear
11:04 AM 30.2 °F 17.1 °F 5.0 °F 34% 30.58 in 10.0 mi West 21.9 mph 27.6 mph N/A   Clear
11:24 AM 30.2 °F 17.1 °F 6.8 °F 37% 30.57 in 10.0 mi WSW 21.9 mph - N/A   Clear
11:44 AM 30.2 °F 17.8 °F 6.8 °F 37% 30.58 in 10.0 mi WSW 19.6 mph - N/A   Clear
12:04 PM 32.0 °F 22.1 °F 5.0 °F 32% 30.58 in 10.0 mi West 13.8 mph - N/A   Clear
12:24 PM 32.0 °F 23.0 °F 6.8 °F 35% 30.58 in 10.0 mi West 11.5 mph - N/A   Clear
12:44 PM 33.8 °F 25.8 °F 8.6 °F 35% 30.58 in 10.0 mi West 10.4 mph - N/A   Clear
1:04 PM 33.8 °F 25.8 °F 8.6 °F 35% 30.58 in 10.0 mi West 10.4 mph - N/A   Clear
1:24 PM 33.8 °F 25.8 °F 8.6 °F 35% 30.58 in 10.0 mi West 10.4 mph - N/A   Clear
2:04 PM 35.6 °F 28.6 °F 6.8 °F 30% 30.56 in 10.0 mi West 9.2 mph - N/A   Clear
2:24 PM 35.6 °F 29.2 °F 8.6 °F 33% 30.56 in 10.0 mi West 8.1 mph - N/A   Clear
2:44 PM 35.6 °F 28.0 °F 8.6 °F 33% 30.56 in 10.0 mi WSW 10.4 mph - N/A   Clear
3:04 PM 35.6 °F 27.1 °F 8.6 °F 33% 30.56 in 10.0 mi WSW 12.7 mph - N/A   Clear
3:24 PM 33.8 °F 24.8 °F 8.6 °F 35% 30.56 in 10.0 mi SW 12.7 mph - N/A   Clear
3:44 PM 33.8 °F 23.5 °F 8.6 °F 35% 30.56 in 10.0 mi WSW 16.1 mph - N/A   Clear
4:04 PM 33.8 °F 23.2 °F 8.6 °F 35% 30.56 in 10.0 mi WSW 17.3 mph - N/A   Clear
4:24 PM 32.0 °F 20.8 °F 6.8 °F 35% 30.56 in 10.0 mi WSW 17.3 mph - N/A   Clear
4:44 PM 32.0 °F 19.8 °F 6.8 °F 35% 30.55 in 10.0 mi West 20.7 mph - N/A   Clear
5:04 PM 30.2 °F 18.5 °F 8.6 °F 40% 30.55 in 10.0 mi WSW 17.3 mph - N/A   Clear
5:24 PM 30.2 °F 18.5 °F 6.8 °F 37% 30.56 in 10.0 mi West 17.3 mph - N/A   Clear
5:44 PM 30.2 °F 19.3 °F 5.0 °F 34% 30.56 in 10.0 mi WSW 15.0 mph - N/A   Clear
6:04 PM 30.2 °F 19.3 °F 5.0 °F 34% 30.56 in 10.0 mi WSW 15.0 mph - N/A   Clear
6:24 PM 30.2 °F 19.8 °F 5.0 °F 34% 30.56 in 10.0 mi West 13.8 mph - N/A   Clear
6:44 PM 30.2 °F 20.8 °F 5.0 °F 34% 30.56 in 10.0 mi WSW 11.5 mph - N/A   Clear
7:04 PM 30.2 °F 21.3 °F 5.0 °F 34% 30.56 in 10.0 mi WSW 10.4 mph - N/A   Clear
7:24 PM 30.2 °F 22.6 °F 5.0 °F 34% 30.56 in 10.0 mi WSW 8.1 mph - N/A   Clear
7:44 PM 30.2 °F 23.4 °F 5.0 °F 34% 30.55 in 10.0 mi WSW 6.9 mph - N/A   Clear
8:04 PM 30.2 °F 25.4 °F 5.0 °F 34% 30.56 in 10.0 mi WNW 4.6 mph - N/A   Clear
8:24 PM 30.2 °F 25.4 °F 3.2 °F 32% 30.55 in 10.0 mi NE 4.6 mph - N/A   Clear
8:44 PM 32.0 °F 25.6 °F 3.2 °F 30% 30.55 in 10.0 mi NE 6.9 mph - N/A   Mostly Cloudy
9:04 PM 28.4 °F 16.2 °F 6.8 °F 40% 30.54 in 10.0 mi ENE 17.3 mph - N/A   Overcast
9:24 PM 26.6 °F 12.4 °F 8.6 °F 47% 30.53 in 10.0 mi ENE 21.9 mph - N/A   Scattered Clouds
9:44 PM 23.0 °F 7.6 °F 8.6 °F 54% 30.53 in 10.0 mi ENE 21.9 mph - N/A   Clear
10:04 PM 23.0 °F 8.0 °F 8.6 °F 54% 30.53 in 10.0 mi ENE 20.7 mph - N/A   Scattered Clouds
10:24 PM 23.0 °F 7.6 °F 10.4 °F 59% 30.53 in 10.0 mi ENE 21.9 mph - N/A   Mostly Cloudy
10:44 PM 21.2 °F 6.8 °F 10.4 °F 63% 30.53 in 10.0 mi ENE 17.3 mph - N/A   Overcast
11:04 PM 21.2 °F 8.3 °F 10.4 °F 63% 30.53 in 10.0 mi ENE 13.8 mph - N/A   Overcast
11:24 PM 21.2 °F 12.6 °F 10.4 °F 63% 30.53 in 10.0 mi ENE 6.9 mph - N/A   Overcast
11:44 PM 21.2 °F 14.9 °F 10.4 °F 63% 30.53 in 10.0 mi NE 4.6 mph - N/A   Overcast